UTTI current weather conditions

sailwx.info

Wind from 100 at 15 knots

Air temperature -0.0° C
Visibility: greater than 5.4 NM
Dewpoint -1.0° C

Last reported at 2015-Jan-31 13:20 UTC.
Time now 2015-Jan-31 14:39 UTC

Location: N 60°54' E 026°56'.
View on Google Maps.

See reports from other nearby stations

  
Tides and Currents Weather Stations Pressure Air Temp Water Temp Dewpoint Dewpoint Depression Visibility Wind Speed Wind Dir Waves Ship Positions
date/time (UTC)wind fromknots sea level pressurealtimeterstation pressurevisibilityair tempwater tempwave heightnotes
2015-Jan-31 13:20 100 15 5.4-0.0
2015-Jan-31 12:50 090 15 5.4-0.0
2015-Jan-31 12:20 090 15 5.4-0.0
2015-Jan-31 11:50 090 16 5.4-0.0
2015-Jan-31 11:20 080 17 5.4-0.0
2015-Jan-31 10:50 100 15 5.4-0.0
2015-Jan-31 10:20 090 17 5.4-0.0
2015-Jan-31 09:50 090 16 5.4-0.0
2015-Jan-31 09:20 090 14 5.4-0.0
2015-Jan-31 08:50 100 14 5.4-0.0
2015-Jan-31 08:20 100 13 5.4-0.0
2015-Jan-31 07:50 100 13 5.4-1.0
2015-Jan-31 07:20 100 12 5.4-1.0
2015-Jan-31 06:50 110 12 5.4-1.0
2015-Jan-31 06:20 100 12 4.9-1.0
2015-Jan-31 05:50 110 12 3.8-1.0
2015-Jan-31 05:20 110 11 4.3-1.0
2015-Jan-31 04:50 100 11 3.2-1.0
2015-Jan-31 04:20 100 11 2.5-1.0 Mist.
2015-Jan-31 03:50 100 12 2.4-1.0 Mist.
2015-Jan-31 03:20 100 12 3.2-2.0
2015-Jan-31 02:50 100 11 4.3-2.0 Light snow.
2015-Jan-31 02:20 110 10 5.4-2.0
2015-Jan-31 01:50 090 10 5.4-2.0
2015-Jan-31 01:20 100 10 5.4-2.0
2015-Jan-31 00:50 110 10 5.4-2.0
2015-Jan-31 00:20 110 8 5.4-2.0
2015-Jan-30 23:50 110 10 5.4-2.0
2015-Jan-30 23:20 110 9 5.4-2.0
2015-Jan-30 22:50 110 7 5.4-2.0
2015-Jan-30 22:20 110 7 5.4-3.0
2015-Jan-30 21:50 110 7 5.4-3.0
2015-Jan-30 21:20 120 8 4.3-3.0
2015-Jan-30 20:50 110 8 4.3-3.0
2015-Jan-30 20:20 110 7 4.3-4.0
2015-Jan-30 19:50 110 6 4.9-4.0
2015-Jan-30 19:20 120 7 5.4-4.0
2015-Jan-30 18:50 120 6 4.9-3.0
2015-Jan-30 18:20 110 6 5.4-3.0
2015-Jan-30 17:50 130 6 5.4-2.0
2015-Jan-30 17:20 140 6 5.4-2.0
2015-Jan-30 16:50 150 9 5.4-1.0
2015-Jan-30 16:20 150 8 5.4-1.0
2015-Jan-30 15:50 150 7 5.4-1.0
2015-Jan-30 15:20 140 6 5.4-1.0
2015-Jan-30 14:50 150 6 5.4-1.0
2015-Jan-30 14:20 140 5 5.4-1.0
2015-Jan-30 13:50 150 6 5.4-1.0
2015-Jan-30 13:20 150 5 5.4-1.0
2015-Jan-30 12:50 160 5 5.4-0.0
2015-Jan-30 12:20 150 6 5.4-0.0
2015-Jan-30 11:50 160 5 5.4-0.0
2015-Jan-30 11:20 160 6 5.4-0.0
2015-Jan-30 10:50 150 6 5.4-0.0 Light snow showers.
2015-Jan-30 10:20 150 6 3.8-0.0 Light snow showers.
2015-Jan-30 09:50 150 5 5.4-0.0
2015-Jan-30 09:20 150 5 5.4-0.0
2015-Jan-30 08:50 150 5 5.4-0.0
2015-Jan-30 08:20 160 6 5.4-1.0
2015-Jan-30 07:50 150 6 4.3-1.0
2015-Jan-30 07:20 150 6 4.3-1.0 Light snow showers.
2015-Jan-30 06:50 150 5 2.7-1.0 Light snow showers.
2015-Jan-30 06:20 170 5 1.9-1.0 Light snow showers.
2015-Jan-30 05:50 170 6 1.9-1.0 Light snow showers.
2015-Jan-30 05:20 160 5 0.8-1.0 Snow showers.
2015-Jan-30 04:50 160 6 1.9-1.0 Light snow showers.
2015-Jan-30 04:20 150 7 2.7-1.0 Light snow showers.
2015-Jan-30 03:50 150 6 3.8-1.0 Light snow.
2015-Jan-30 00:50 160 6 2.7-0.0 Light snow showers.
2015-Jan-30 00:20 160 7 5.4-0.0
2015-Jan-29 23:50 170 7 3.8-0.0
2015-Jan-29 23:20 170 7 4.3-0.0
2015-Jan-29 22:50 170 8 5.4-1.0
2015-Jan-29 22:20 170 7 4.9-1.0
2015-Jan-29 21:50 160 7 3.2-1.0 Light snow.
2015-Jan-29 21:20 160 8 3.2-1.0 Light snow.
2015-Jan-29 20:50 160 8 2.4-1.0 Light snow.
2015-Jan-29 20:20 150 9 3.2-1.0 Light snow.
2015-Jan-29 19:50 150 9 5.4-1.0 Light snow.
2015-Jan-29 19:20 150 10 4.9-1.0 Light snow.
2015-Jan-29 18:50 150 10 5.4-1.0 Light snow.
2015-Jan-29 18:20 150 10 5.4-1.0 Light snow.
2015-Jan-29 17:50 150 8 5.4-1.0 Light snow.
2015-Jan-29 17:20 150 10 3.8-1.0 Light snow.
2015-Jan-29 16:50 150 10 5.4-1.0 Light snow.
2015-Jan-29 16:20 150 12 5.4-1.0 Light snow.
2015-Jan-29 15:50 160 10 5.4-1.0 Light snow.
2015-Jan-29 15:20 150 11 5.4-1.0 Light snow.
2015-Jan-29 14:50 150 11 5.4-1.0 Light snow.
2015-Jan-29 14:20 150 12 5.4-1.0 Light snow.